When you browse on this site, cookies collect data to enhance your experience and personalize the content and advertising you see.
Visit our Privacy Policy to learn more. By continuing to use the site, you agree to this use of cookies and data.
  • In Hungary
  • List of Countries
  • For 7 days
  • Water Temperature
  • Weather Map
  • News
  • Weather Widgets
  • user-avatar
    Login

    Hourly Weather Villa Corzo

    Today, 18 November, Monday

    Time Temperature Precipitation Wind Pressure Humidity
    00:00 +19°C° 0 mm 1 mps 701 mmHg 95%
    01:00 +19°C° 0 mm 1 mps 701 mmHg 95%
    02:00 +19°C° 0 mm 1 mps 701 mmHg 94%
    03:00 +19°C° 0 mm 1 mps 701 mmHg 93%
    04:00 +19°C° 0 mm 1 mps 701 mmHg 93%
    05:00 +19°C° 0 mm 1 mps 701 mmHg 94%
    06:00 +19°C° 0 mm 1 mps 701 mmHg 94%
    07:00 +20°C° 0 mm 1 mps 702 mmHg 89%
    08:00 +22°C° 0 mm 1 mps 703 mmHg 83%
    09:00 +23°C° 0 mm 2 mps 703 mmHg 78%
    10:00 +24°C° 0 mm 2 mps 703 mmHg 73%
    11:00 +25°C° 0 mm 2 mps 703 mmHg 68%
    12:00 +27°C° 0 mm 2 mps 703 mmHg 63%
    13:00 +27°C° 0 mm 2 mps 702 mmHg 62%
    14:00 +27°C° 0 mm 2 mps 701 mmHg 62%
    15:00 +27°C° 0 mm 2 mps 701 mmHg 61%
    16:00 +25°C° 0 mm 2 mps 701 mmHg 70%
    17:00 +23°C° 0 mm 1 mps 701 mmHg 79%
    18:00 +21°C° 0 mm 1 mps 701 mmHg 87%
    19:00 +20°C° 0 mm 1 mps 701 mmHg 90%
    20:00 +19°C° 0 mm 1 mps 702 mmHg 92%
    21:00 +19°C° 0 mm 1 mps 702 mmHg 95%
    22:00 +18°C° 0 mm 1 mps 702 mmHg 95%
    23:00 +18°C° 0 mm 1 mps 702 mmHg 96%

    Tomorrow, 19 November, Tuesday

    Time Temperature Precipitation Wind Pressure Humidity
    00:00 +18°C° 0 mm 1 mps 702 mmHg 96%
    01:00 +18°C° 0 mm 1 mps 702 mmHg 96%
    02:00 +18°C° 0 mm 1 mps 702 mmHg 96%
    03:00 +18°C° 0 mm 1 mps 701 mmHg 97%
    04:00 +18°C° 0 mm 1 mps 701 mmHg 97%
    05:00 +18°C° 0 mm 1 mps 702 mmHg 97%
    06:00 +18°C° 0 mm 1 mps 702 mmHg 96%
    07:00 +19°C° 0 mm 1 mps 702 mmHg 91%
    08:00 +21°C° 0 mm 1 mps 703 mmHg 85%
    09:00 +23°C° 0 mm 1 mps 704 mmHg 79%
    10:00 +25°C° 0 mm 1 mps 703 mmHg 73%
    11:00 +27°C° 0 mm 1 mps 703 mmHg 67%
    12:00 +29°C° 0 mm 1 mps 703 mmHg 61%
    13:00 +29°C° 0 mm 1 mps 703 mmHg 59%
    14:00 +29°C° 0 mm 1 mps 702 mmHg 58%
    15:00 +29°C° 0 mm 1 mps 702 mmHg 57%
    16:00 +27°C° 0 mm 1 mps 702 mmHg 66%
    17:00 +24°C° 0 mm 1 mps 702 mmHg 75%
    18:00 +22°C° 0 mm 1 mps 702 mmHg 84%
    19:00 +21°C° 0 mm 1 mps 702 mmHg 87%
    20:00 +20°C° 0 mm 1 mps 703 mmHg 89%
    21:00 +20°C° 0 mm 1 mps 703 mmHg 92%
    22:00 +19°C° 0 mm 1 mps 703 mmHg 93%
    23:00 +19°C° 0 mm 1 mps 703 mmHg 94%

    Day after tomorrow, 20 November, Wednesday

    Time Temperature Precipitation Wind Pressure Humidity
    00:00 +18°C° 0 mm 1 mps 703 mmHg 95%
    01:00 +18°C° 0 mm 1 mps 702 mmHg 95%
    02:00 +16°C° 0 mm 0 mps 702 mmHg 96%
    03:00 +16°C° 0 mm 0 mps 702 mmHg 96%
    04:00 +16°C° 0 mm 0 mps 702 mmHg 97%
    05:00 +16°C° 0 mm 0 mps 702 mmHg 97%
    06:00 +16°C° 0 mm 0 mps 702 mmHg 97%
    07:00 +17°C° 0 mm 0 mps 703 mmHg 92%
    08:00 +19°C° 0 mm 0 mps 703 mmHg 87%
    09:00 +23°C° 0 mm 1 mps 704 mmHg 82%
    10:00 +23°C° 0 mm 0 mps 704 mmHg 74%
    11:00 +26°C° 0 mm 0 mps 704 mmHg 67%
    12:00 +28°C° 0 mm 0 mps 704 mmHg 60%
    13:00 +28°C° 0 mm 0 mps 703 mmHg 60%
    14:00 +29°C° 0 mm 1 mps 703 mmHg 60%
    15:00 +29°C° 0 mm 1 mps 702 mmHg 61%
    16:00 +27°C° 0.1 mm 1 mps 702 mmHg 70%
    17:00 +23°C° 0.1 mm 0 mps 702 mmHg 79%
    18:00 +21°C° 0.1 mm 0 mps 702 mmHg 87%
    19:00 +20°C° 0 mm 0 mps 702 mmHg 90%
    20:00 +20°C° 0 mm 0 mps 703 mmHg 92%
    21:00 +19°C° 0 mm 0 mps 703 mmHg 94%
    22:00 +19°C° 0 mm 0 mps 703 mmHg 94%
    23:00 +19°C° 0 mm 0 mps 703 mmHg 95%

    21 November, Thursday

    Time Temperature Precipitation Wind Pressure Humidity
    00:00 +19°C° 0 mm 0 mps 703 mmHg 95%
    01:00 +19°C° 0 mm 0 mps 703 mmHg 95%
    02:00 +19°C° 0 mm 0 mps 702 mmHg 95%
    03:00 +19°C° 0 mm 0 mps 702 mmHg 96%
    04:00 +18°C° 0 mm 0 mps 702 mmHg 96%
    05:00 +18°C° 0 mm 0 mps 702 mmHg 96%
    06:00 +18°C° 0 mm 0 mps 702 mmHg 97%
    07:00 +20°C° 0 mm 0 mps 703 mmHg 90%
    08:00 +22°C° 0 mm 0 mps 703 mmHg 84%
    09:00 +24°C° 0 mm 0 mps 704 mmHg 78%
    10:00 +25°C° 0 mm 0 mps 704 mmHg 72%
    11:00 +27°C° 0 mm 0 mps 703 mmHg 67%
    12:00 +28°C° 0 mm 0 mps 703 mmHg 61%
    13:00 +30°C° 0 mm 1 mps 702 mmHg 62%
    14:00 +30°C° 0 mm 1 mps 702 mmHg 62%
    15:00 +30°C° 0 mm 1 mps 701 mmHg 63%
    16:00 +28°C° 0 mm 1 mps 701 mmHg 71%
    17:00 +26°C° 0 mm 1 mps 701 mmHg 80%
    18:00 +24°C° 0 mm 1 mps 701 mmHg 88%
    19:00 +23°C° 0 mm 1 mps 702 mmHg 90%
    20:00 +22°C° 0 mm 1 mps 702 mmHg 92%
    21:00 +22°C° 0 mm 1 mps 702 mmHg 94%
    22:00 +21°C° 0 mm 1 mps 702 mmHg 93%
    23:00 +21°C° 0 mm 1 mps 702 mmHg 92%

    22 November, Friday

    Time Temperature Precipitation Wind Pressure Humidity
    00:00 +19°C° 0 mm 0 mps 702 mmHg 91%
    01:00 +18°C° 0 mm 0 mps 702 mmHg 91%
    02:00 +18°C° 0 mm 0 mps 701 mmHg 91%
    03:00 +18°C° 0 mm 0 mps 701 mmHg 91%
    04:00 +18°C° 0 mm 0 mps 701 mmHg 91%
    05:00 +18°C° 0 mm 0 mps 701 mmHg 91%
    06:00 +17°C° 0 mm 0 mps 701 mmHg 92%
    07:00 +20°C° 0 mm 0 mps 702 mmHg 84%
    08:00 +22°C° 0 mm 0 mps 703 mmHg 77%
    09:00 +25°C° 0 mm 0 mps 703 mmHg 70%
    10:00 +26°C° 0 mm 0 mps 703 mmHg 65%
    11:00 +28°C° 0 mm 0 mps 703 mmHg 59%
    12:00 +30°C° 0 mm 0 mps 703 mmHg 54%
    13:00 +30°C° 0 mm 0 mps 703 mmHg 54%
    14:00 +31°C° 0 mm 1 mps 702 mmHg 55%
    15:00 +31°C° 0 mm 1 mps 701 mmHg 56%
    16:00 +28°C° 0 mm 1 mps 701 mmHg 65%
    17:00 +26°C° 0 mm 1 mps 701 mmHg 74%
    18:00 +24°C° 0 mm 1 mps 701 mmHg 83%
    19:00 +23°C° 0 mm 1 mps 702 mmHg 85%
    20:00 +23°C° 0 mm 1 mps 702 mmHg 88%
    21:00 +22°C° 0 mm 1 mps 703 mmHg 90%
    22:00 +22°C° 0 mm 1 mps 702 mmHg 90%
    23:00 +21°C° 0 mm 1 mps 702 mmHg 90%

    23 November, Saturday

    Time Temperature Precipitation Wind Pressure Humidity
    00:00 +19°C° 0 mm 0 mps 702 mmHg 90%
    01:00 +19°C° 0 mm 0 mps 702 mmHg 90%
    02:00 +19°C° 0 mm 0 mps 701 mmHg 90%
    03:00 +18°C° 0 mm 0 mps 701 mmHg 89%
    04:00 +18°C° 0 mm 0 mps 701 mmHg 91%
    05:00 +18°C° 0 mm 0 mps 701 mmHg 92%
    06:00 +18°C° 0 mm 0 mps 702 mmHg 93%
    07:00 +20°C° 0 mm 0 mps 702 mmHg 86%
    08:00 +24°C° 0 mm 1 mps 703 mmHg 80%
    09:00 +26°C° 0 mm 1 mps 704 mmHg 74%
    10:00 +28°C° 0 mm 1 mps 704 mmHg 69%
    11:00 +29°C° 0 mm 1 mps 704 mmHg 63%
    12:00 +31°C° 0 mm 1 mps 703 mmHg 58%
    13:00 +30°C° 0.1 mm 1 mps 703 mmHg 60%
    14:00 +30°C° 0.1 mm 1 mps 702 mmHg 61%
    15:00 +30°C° 0.1 mm 2 mps 701 mmHg 63%
    16:00 +28°C° 0.1 mm 2 mps 702 mmHg 71%
    17:00 +26°C° 0.1 mm 1 mps 702 mmHg 79%
    18:00 +24°C° 0.1 mm 1 mps 702 mmHg 87%
    19:00 +23°C° 0 mm 1 mps 702 mmHg 89%
    20:00 +22°C° 0 mm 1 mps 703 mmHg 91%
    21:00 +22°C° 0 mm 1 mps 703 mmHg 93%
    22:00 +22°C° 0 mm 1 mps 703 mmHg 94%
    23:00 +21°C° 0 mm 1 mps 703 mmHg 94%
    Show more